Location: Pine Ridge Estates
(42.5164°N, 73.8156°W)
Time: 04:11:21
(UTC+00:00)

BlueWalker 3 - Visible Passes

Search period start: 14 October 2024 00:00
Search period end: 24 October 2024 00:00
Orbit: 472 x 484 km, 53.2° (Epoch: 13 October)

Date Brightness Start Highest point End Pass type
(mag) Time Alt. Az. Time Alt. Az. Time Alt. Az.
14 Oct 4.3 08:48:28 15° NNE 08:48:28 15° NNE 08:49:52 10° NNE visible
14 Oct 4.0 10:23:50 10° NNW 10:26:24 18° N 10:28:59 10° NE visible
15 Oct 5.0 08:21:08 11° NNE 08:21:08 11° NNE 08:21:22 10° NNE visible
15 Oct 4.1 09:55:20 10° NNW 09:57:50 17° N 10:00:21 10° NE visible
16 Oct 4.1 09:27:58 14° NNW 09:29:15 17° N 09:31:41 10° NE visible
17 Oct 4.2 09:00:38 16° N 09:00:38 16° N 09:03:01 10° NE visible
17 Oct 3.1 10:35:58 10° NW 10:39:24 36° NNE 10:42:50 10° E visible
18 Oct 4.7 08:33:18 14° NNE 08:33:18 14° NNE 08:34:19 10° NE visible
18 Oct 3.2 10:07:29 10° NW 10:10:47 33° NNE 10:14:09 10° E visible
19 Oct 3.4 09:40:10 19° NNW 09:42:08 30° NNE 09:45:26 10° E visible
20 Oct 3.4 09:12:55 27° N 09:13:27 28° NNE 09:16:41 10° E visible
21 Oct 4.0 08:45:42 23° NE 08:45:42 23° NE 08:47:54 10° E visible
21 Oct 1.9 10:19:54 14° WNW 10:22:55 63° SW 10:26:34 10° SE visible
22 Oct 5.1 08:18:34 13° ENE 08:18:34 13° ENE 08:19:05 10° ENE visible
22 Oct 1.7 09:52:45 33° WNW 09:54:15 72° SW 09:57:54 10° SE visible
23 Oct 1.7 09:25:42 78° SSE 09:25:42 78° SSE 09:29:12 10° SE visible
